GW2323 Weather Reports


Display with metric or nautical units.
time (UTC)temp
F
wind
direction
speed
MPH
gust
MPH
rain 1hr
in
rain 24hr
in
rain mn
in
humidity
%
barometer
mb
20260508044027 55 280 2.0 6.0 0.00 0.00 0.00 60 1031.3
20260508043525 55 281 1.0 6.0 0.00 0.00 0.00 60 1031.3
20260508043026 55 296 2.0 5.0 0.00 0.00 0.00 60 1031.3
20260508042526 55 290 1.0 6.0 0.00 0.00 0.00 60 1031.3
20260508042025 55 278 2.0 6.0 0.00 0.00 0.00 60 1031.3
20260508041526 55 288 2.0 6.0 0.00 0.00 0.00 60 1031.3
20260508041025 55 293 1.0 5.0 0.00 0.00 0.00 60 1031.3
20260508040526 55 269 1.0 5.0 0.00 0.00 0.00 60 1031.3
20260508040025 55 250 1.0 5.0 0.00 0.00 0.00 60 1031.3
20260508035524 56 216 0.0 3.0 0.00 0.00 0.00 59 1031.3
20260508035030 56 274 0.0 4.0 0.00 0.00 0.00 59 1031.3
20260508034530 55 281 1.0 5.0 0.00 0.00 0.00 59 1031.3
20260508034024 55 281 1.0 5.0 0.00 0.00 0.00 60 1031.3
20260508033524 55 278 1.0 4.0 0.00 0.00 0.00 60 1031.3
20260508033026 55 272 0.0 2.0 0.00 0.00 0.00 61 1031.3
20260508032524 55 272 0.0 0.0 0.00 0.00 0.00 60 1031.3
20260508032024 56 272 0.0 2.0 0.00 0.00 0.00 60 1031.3
20260508031526 56 272 0.0 2.0 0.00 0.00 0.00 57 1031.3
20260508031023 56 272 0.0 0.0 0.00 0.00 0.00 57 1031.3
20260508030524 57 272 0.0 0.0 0.00 0.00 0.00 57 1031.3
20260508030024 57 272 0.0 0.0 0.00 0.00 0.00 56 1031.3
20260508025522 57 272 0.0 2.0 0.00 0.00 0.00 56 1031.3
20260508025022 57 272 0.0 2.0 0.00 0.00 0.00 55 1031.3
20260508024526 58 248 0.0 4.0 0.00 0.00 0.00 54 1031.3
20260508024022 58 274 0.0 4.0 0.00 0.00 0.00 54 1031.3
20260508023523 58 257 0.0 3.0 0.00 0.00 0.00 54 1031.3
20260508023022 58 281 0.0 3.0 0.00 0.00 0.00 53 1031.3
20260508022523 59 242 0.0 2.0 0.00 0.00 0.00 52 1031.3
20260508022022 59 239 0.0 4.0 0.00 0.00 0.00 51 1031.3
20260508021524 59 275 1.0 4.0 0.00 0.00 0.00 51 1031.3
20260508021024 59 283 1.0 4.0 0.00 0.00 0.00 51 1031.3
20260508020521 59 263 0.0 4.0 0.00 0.00 0.00 51 1031.3
20260508020031 60 274 1.0 3.0 0.00 0.00 0.00 50 1031.3
20260508015521 60 283 1.0 3.0 0.00 0.00 0.00 49 1031.3
20260508015021 60 293 0.0 5.0 0.00 0.00 0.00 49 1031.3
20260508014521 60 259 0.0 3.0 0.00 0.00 0.00 49 1031.3
20260508014021 60 274 1.0 4.0 0.00 0.00 0.00 49 1031.3
20260508013521 61 270 1.0 4.0 0.00 0.00 0.00 48 1031.3
20260508013020 61 285 1.0 4.0 0.00 0.00 0.00 48 1031.3
20260508012520 61 286 1.0 4.0 0.00 0.00 0.00 48 1031.3
20260508012022 61 295 1.0 5.0 0.00 0.00 0.00 47 1031.3
20260508011521 62 281 2.0 4.0 0.00 0.00 0.00 46 1031.3
20260508011020 62 290 2.0 7.0 0.00 0.00 0.00 46 1031.3
20260508010520 62 265 2.0 7.0 0.00 0.00 0.00 45 1031.3
20260508010021 62 287 2.0 8.0 0.00 0.00 0.00 44 1031.3
20260508005519 62 281 2.0 8.0 0.00 0.00 0.00 44 1031.3
20260508005020 63 278 2.0 7.0 0.00 0.00 0.00 44 1031.3
20260508004519 63 285 2.0 7.0 0.00 0.00 0.00 44 1031.3
20260508004021 63 344 3.0 7.0 0.00 0.00 0.00 43 1031.3
20260508003519 64 285 3.0 6.0 0.00 0.00 0.00 44 1031.3
20260508003021 64 290 1.0 7.0 0.00 0.00 0.00 43 1031.3
20260508002519 64 269 3.0 7.0 0.00 0.00 0.00 42 1031.3
20260508002019 64 288 3.0 8.0 0.00 0.00 0.00 42 1031.3
20260508001518 65 297 2.0 11.0 0.00 0.00 0.00 42 1031.3
20260508001019 65 335 5.0 11.0 0.00 0.00 0.00 40 1031.3
20260508000521 65 291 3.0 10.0 0.00 0.00 0.00 41 1031.3
20260508000018 65 302 5.0 11.0 0.00 0.00 0.00 41 1031.3
20260507235522 65 326 4.0 10.0 0.00 0.00 0.00 40 1031.3
20260507235018 65 325 4.0 9.0 0.00 0.00 0.00 40 1031.3
20260507234517 65 308 4.0 11.0 0.00 0.00 0.00 40 1031.3
20260507234019 65 287 5.0 14.0 0.00 0.00 0.00 39 1031.3
20260507233517 65 289 6.0 14.0 0.00 0.00 0.00 39 1031.3
20260507233018 66 317 7.0 12.0 0.00 0.00 0.00 38 1031.3
20260507232520 66 314 3.0 14.0 0.00 0.00 0.00 38 1031.3
20260507232017 66 293 6.0 14.0 0.00 0.00 0.00 38 1031.3
20260507231517 66 304 1.0 9.0 0.00 0.00 0.00 40 1031.3
20260507231017 66 263 3.0 14.0 0.00 0.00 0.00 38 1031.3
20260507230516 66 283 6.0 14.0 0.00 0.00 0.00 38 1031.3
20260507230017 66 328 4.0 8.0 0.00 0.00 0.00 40 1031.3
20260507225516 66 319 2.0 14.0 0.00 0.00 0.00 39 1031.3
20260507225016 66 328 6.0 14.0 0.00 0.00 0.00 37 1031.3
20260507224522 66 322 4.0 10.0 0.00 0.00 0.00 38 1031.3
20260507224015 67 349 5.0 10.0 0.00 0.00 0.00 37 1031.3
20260507223516 66 299 4.0 11.0 0.00 0.00 0.00 37 1031.3
20260507223016 66 9 6.0 11.0 0.00 0.00 0.00 37 1031.3
20260507222515 66 352 5.0 10.0 0.00 0.00 0.00 39 1031.3
20260507222015 67 356 2.0 10.0 0.00 0.00 0.00 39 1031.3
20260507221515 66 356 4.0 12.0 0.00 0.00 0.00 37 1031.3
20260507221015 66 353 7.0 15.0 0.00 0.00 0.00 36 1031.3
20260507220514 66 352 6.0 15.0 0.00 0.00 0.00 38 1031.3
20260507220014 66 359 8.0 15.0 0.00 0.00 0.00 37 1031.3
20260507215517 66 319 6.0 15.0 0.00 0.00 0.00 37 1031.3
20260507215016 66 281 5.0 11.0 0.00 0.00 0.00 36 1031.3
20260507214521 66 290 3.0 10.0 0.00 0.00 0.00 36 1031.3
20260507214013 66 293 5.0 11.0 0.00 0.00 0.00 38 1031.3
20260507213515 66 359 3.0 9.0 0.00 0.00 0.00 36 1031.3
20260507213017 66 1 2.0 13.0 0.00 0.00 0.00 40 1031.3
20260507212513 66 317 5.0 13.0 0.00 0.00 0.00 38 1031.3
20260507212013 66 321 7.0 13.0 0.00 0.00 0.00 36 1031.3
20260507211514 66 345 6.0 9.0 0.00 0.00 0.00 37 1031.3
20260507211012 66 308 3.0 8.0 0.00 0.00 0.00 38 1031.3
20260507210521 65 344 3.0 13.0 0.00 0.00 0.00 38 1031.3
20260507210012 65 285 3.0 13.0 0.00 0.00 0.00 37 1031.3
20260507205512 66 49 6.0 13.0 0.00 0.00 0.00 35 1031.3
20260507205012 66 346 5.0 13.0 0.00 0.00 0.00 36 1031.3
20260507204511 66 319 3.0 9.0 0.00 0.00 0.00 38 1031.3
20260507204012 66 72 2.0 11.0 0.00 0.00 0.00 36 1031.3
20260507203512 66 337 6.0 11.0 0.00 0.00 0.00 37 1031.3
20260507203014 65 334 4.0 11.0 0.00 0.00 0.00 37 1031.3
20260507202510 65 269 7.0 11.0 0.00 0.00 0.00 36 1031.3
20260507202010 66 267 2.0 6.0 0.00 0.00 0.00 36 1031.3
20260507201511 66 320 2.0 10.0 0.00 0.00 0.00 37 1031.3
20260507201009 66 43 1.0 11.0 0.00 0.00 0.00 47 1031.3
20260507200509 64 264 4.0 15.0 0.00 0.00 0.00 39 1031.3
20260507200011 64 323 7.0 19.0 0.00 0.00 0.00 37 1031.3
20260507195508 64 293 8.0 19.0 0.00 0.00 0.00 37 1031.3
20260507195008 64 273 4.0 15.0 0.00 0.00 0.00 37 1031.3
20260507194508 64 311 5.0 18.0 0.00 0.00 0.00 38 1031.3
20260507194007 64 307 8.0 18.0 0.00 0.00 0.00 36 1031.3
20260507193511 64 29 3.0 17.0 0.00 0.00 0.00 39 1031.3
20260507193007 64 330 8.0 18.0 0.00 0.00 0.00 36 1031.3
20260507192507 65 13 6.0 10.0 0.00 0.00 0.00 38 1031.3
20260507192007 64 243 3.0 10.0 0.00 0.00 0.00 39 1031.3
20260507191506 64 323 5.0 14.0 0.00 0.00 0.00 37 1031.3
20260507191006 63 305 5.0 18.0 0.00 0.00 0.00 39 1031.3
20260507190507 63 312 11.0 18.0 0.00 0.00 0.00 37 1031.3
20260507190005 64 300 3.0 10.0 0.00 0.00 0.00 37 1031.3
20260507185504 63 360 2.0 14.0 0.00 0.00 0.00 39 1031.3
20260507185004 63 307 6.0 14.0 0.00 0.00 0.00 37 1031.3
20260507184504 63 322 6.0 15.0 0.00 0.00 0.00 35 1031.3
20260507184003 64 288 2.0 14.0 0.00 0.00 0.00 43 1031.3
20260507183502 63 305 4.0 14.0 0.00 0.00 0.00 41 1031.3
20260507183002 63 349 7.0 13.0 0.00 0.00 0.00 38 1031.3
20260507182502 62 7 4.0 10.0 0.00 0.00 0.00 37 1031.3
20260507182002 63 344 4.0 10.0 0.00 0.00 0.00 38 1031.3
20260507181505 62 30 2.0 10.0 0.00 0.00 0.00 38 1031.3
20260507181002 63 6 5.0 11.0 0.00 0.00 0.00 36 1031.3
20260507180501 63 283 7.0 13.0 0.00 0.00 0.00 38 1031.3
20260507180002 62 300 5.0 13.0 0.00 0.00 0.00 40 1031.3
20260507175559 62 283 1.0 10.0 0.00 0.00 0.00 41 1031.3
20260507175059 62 309 4.0 12.0 0.00 0.00 0.00 37 1031.3
20260507174607 62 302 6.0 12.0 0.00 0.00 0.00 38 1031.3
20260507174059 61 263 4.0 13.0 0.00 0.00 0.00 40 1031.3
20260507173601 62 271 5.0 13.0 0.00 0.00 0.00 37 1031.3
20260507173059 61 323 3.0 11.0 0.00 0.00 0.00 38 1031.3
20260507172600 61 322 6.0 11.0 0.00 0.00 0.00 39 1031.3
20260507172056 61 276 3.0 9.0 0.00 0.00 0.00 40 1031.3
20260507171604 61 336 3.0 9.0 0.00 0.00 0.00 41 1031.3
20260507171055 61 328 3.0 11.0 0.00 0.00 0.00 38 1031.3
20260507170556 61 292 4.0 12.0 0.00 0.00 0.00 37 1031.3
20260507170055 61 283 4.0 14.0 0.00 0.00 0.00 38 1031.3
20260507165554 61 300 5.0 14.0 0.00 0.00 0.00 38 1031.3
20260507165056 60 302 3.0 8.0 0.00 0.00 0.00 42 1031.3
20260507164552 60 322 3.0 8.0 0.00 0.00 0.00 38 1031.3
20260507164052 60 325 3.0 12.0 0.00 0.00 0.00 38 1031.3
20260507163552 60 290 7.0 12.0 0.00 0.00 0.00 37 1031.3
20260507163052 60 335 3.0 9.0 0.00 0.00 0.00 41 1031.3
20260507162552 60 323 2.0 8.0 0.00 0.00 0.00 43 1031.3
20260507162051 59 342 3.0 8.0 0.00 0.00 0.00 40 1031.3
20260507161553 59 57 3.0 8.0 0.00 0.00 0.00 37 1031.3
20260507161049 59 2 3.0 6.0 0.00 0.00 0.00 40 1031.3
20260507160548 59 348 0.0 10.0 0.00 0.00 0.00 47 1031.3
20260507160049 58 332 1.0 12.0 0.00 0.00 0.00 44 1031.3
20260507155546 58 336 5.0 12.0 0.00 0.00 0.00 44 1031.3
20260507155046 58 330 4.0 10.0 0.00 0.00 0.00 43 1031.3
20260507154546 58 340 3.0 10.0 0.00 0.00 0.00 43 1031.3
20260507154044 58 315 1.0 10.0 0.00 0.00 0.00 47 1031.3
20260507153544 58 345 1.0 9.0 0.00 0.00 0.00 51 1031.3
20260507153043 57 290 4.0 9.0 0.00 0.00 0.00 50 1031.3
20260507152542 57 245 3.0 8.0 0.00 0.00 0.00 49 1031.3
20260507152043 57 304 3.0 9.0 0.00 0.00 0.00 50 1031.3
20260507151543 57 291 2.0 9.0 0.00 0.00 0.00 51 1031.3
20260507151041 56 298 2.0 8.0 0.00 0.00 0.00 47 1031.3
20260507150540 56 289 1.0 7.0 0.00 0.00 0.00 53 1031.3
20260507150040 56 301 1.0 10.0 0.00 0.00 0.00 54 1031.3
20260507145538 56 307 6.0 10.0 0.00 0.00 0.00 48 1031.3
20260507145038 56 280 1.0 5.0 0.00 0.00 0.00 53 1031.3
20260507144557 55 292 2.0 5.0 0.00 0.00 0.00 53 1031.3
20260507144036 55 321 1.0 4.0 0.00 0.00 0.00 57 1031.3
20260507143535 54 290 0.0 6.0 0.00 0.00 0.00 58 1031.3
20260507143033 54 321 0.0 7.0 0.00 0.00 0.00 59 1031.3
20260507142533 53 291 1.0 6.0 0.00 0.00 0.00 63 1031.3
20260507142034 53 309 2.0 5.0 0.00 0.00 0.00 64 1031.3
20260507141529 52 323 1.0 5.0 0.00 0.00 0.00 73 1031.3
20260507141028 51 311 0.0 3.0 0.00 0.00 0.00 74 1031.3
20260507140527 51 317 1.0 3.0 0.00 0.00 0.00 75 1031.3
20260507140024 50 308 1.0 3.0 0.00 0.00 0.00 77 1031.3
20260507135524 49 251 0.0 3.0 0.00 0.00 0.00 81 1031.3
20260507135021 48 287 0.0 2.0 0.00 0.00 0.00 83 1031.3
20260507134520 47 322 0.0 0.0 0.00 0.00 0.00 84 1031.3
20260507134019 47 36 0.0 0.0 0.00 0.00 0.00 85 1031.3
20260507133519 46 36 0.0 0.0 0.00 0.00 0.00 86 1031.3
20260507133018 46 18 0.0 0.0 0.00 0.00 0.00 86 1031.3
20260507132518 45 18 0.0 0.0 0.00 0.00 0.00 86 1031.3
20260507132017 45 18 0.0 0.0 0.00 0.00 0.00 86 1031.3
20260507131518 45 293 0.0 0.0 0.00 0.00 0.00 86 1031.3
20260507131018 45 293 0.0 0.0 0.00 0.00 0.00 87 1031.3
20260507130518 44 293 0.0 0.0 0.00 0.00 0.00 87 1031.3
20260507130017 44 285 0.0 0.0 0.00 0.00 0.00 86 1031.3
20260507125516 43 285 0.0 0.0 0.00 0.00 0.00 86 1031.3
20260507125016 43 285 0.0 0.0 0.00 0.00 0.00 86 1031.3
20260507124516 43 285 0.0 0.0 0.00 0.00 0.00 87 1031.3
20260507124022 42 285 0.0 0.0 0.00 0.00 0.00 87 1031.3
20260507123516 42 285 0.0 0.0 0.00 0.00 0.00 88 1031.3
20260507123016 42 299 0.0 0.0 0.00 0.00 0.00 88 1031.3
20260507122515 41 280 0.0 0.0 0.00 0.00 0.00 90 1031.3
20260507122016 41 280 0.0 0.0 0.00 0.00 0.00 90 1031.3
20260507121515 40 321 0.0 0.0 0.00 0.00 0.00 92 1031.3
20260507121015 40 321 0.0 0.0 0.00 0.00 0.00 92 1031.3
20260507120515 40 321 0.0 0.0 0.00 0.00 0.00 92 1031.3
20260507120015 39 321 0.0 0.0 0.00 0.00 0.00 93 1031.3
20260507115514 39 321 0.0 0.0 0.00 0.00 0.00 93 1031.3
20260507115016 39 321 0.0 0.0 0.00 0.00 0.00 93 1031.3
20260507114514 38 321 0.0 0.0 0.00 0.00 0.00 93 1031.3
20260507114014 38 321 0.0 0.0 0.00 0.00 0.00 93 1031.3
20260507113513 38 321 0.0 0.0 0.00 0.00 0.00 93 1031.3
20260507113014 37 321 0.0 0.0 0.00 0.00 0.00 93 1031.3
20260507112516 37 321 0.0 0.0 0.00 0.00 0.00 93 1031.3
20260507112014 37 321 0.0 0.0 0.00 0.00 0.00 93 1031.3
20260507111517 37 321 0.0 0.0 0.00 0.00 0.00 93 1031.3
20260507111014 37 321 0.0 0.0 0.00 0.00 0.00 93 1031.3
20260507110517 37 321 0.0 0.0 0.00 0.00 0.00 93 1031.3
20260507110013 37 321 0.0 0.0 0.00 0.00 0.00 93 1031.3
20260507105512 37 321 0.0 0.0 0.00 0.00 0.00 93 1031.3
20260507105011 37 321 0.0 0.0 0.00 0.00 0.00 93 1031.3
20260507104511 37 321 0.0 0.0 0.00 0.00 0.00 93 1031.3
20260507104012 38 321 0.0 0.0 0.00 0.00 0.00 93 1031.3
20260507103513 38 321 0.0 0.0 0.00 0.00 0.00 93 1031.3
20260507103010 38 321 0.0 0.0 0.00 0.00 0.00 93 1031.3
20260507102510 38 321 0.0 0.0 0.00 0.00 0.00 93 1031.3
20260507102010 38 321 0.0 0.0 0.00 0.00 0.00 93 1031.3
20260507101510 38 321 0.0 0.0 0.00 0.00 0.00 93 1031.3
20260507101010 38 321 0.0 0.0 0.00 0.00 0.00 93 1031.3
20260507100510 38 321 0.0 0.0 0.00 0.00 0.00 93 1031.3
20260507100016 38 321 0.0 0.0 0.00 0.00 0.00 93 1031.3
20260507095511 38 321 0.0 0.0 0.00 0.00 0.00 92 1031.3
20260507095011 38 321 0.0 0.0 0.00 0.00 0.00 92 1031.3
20260507094509 38 321 0.0 0.0 0.00 0.00 0.00 92 1031.3
20260507094010 38 321 0.0 0.0 0.00 0.00 0.00 92 1031.3
20260507093508 38 321 0.0 0.0 0.00 0.00 0.00 91 1031.3
20260507093008 38 321 0.0 0.0 0.00 0.00 0.00 91 1031.3
20260507092508 38 321 0.0 0.0 0.00 0.00 0.00 91 1031.3
20260507092010 38 321 0.0 0.0 0.00 0.00 0.00 90 1031.3
20260507091507 38 321 0.0 0.0 0.00 0.00 0.00 90 1031.3
20260507091009 38 321 0.0 0.0 0.00 0.00 0.00 89 1031.3
20260507090506 38 321 0.0 0.0 0.00 0.00 0.00 88 1031.3
20260507090010 39 321 0.0 0.0 0.00 0.00 0.00 88 1031.3
20260507085503 39 321 0.0 0.0 0.00 0.00 0.00 87 1031.3
20260507085004 39 321 0.0 0.0 0.00 0.00 0.00 87 1031.3
20260507084502 39 321 0.0 0.0 0.00 0.00 0.00 86 1031.3
20260507084002 39 321 0.0 0.0 0.00 0.00 0.00 86 1031.3
20260507083502 39 321 0.0 0.0 0.00 0.00 0.00 86 1031.3
20260507083002 40 321 0.0 0.0 0.00 0.00 0.00 87 1031.3
20260507082501 40 321 0.0 0.0 0.00 0.00 0.00 87 1031.3
20260507082001 40 321 0.0 0.0 0.00 0.00 0.00 87 1031.3
20260507081600 40 321 0.0 0.0 0.00 0.00 0.00 88 1031.3
20260507081100 40 321 0.0 0.0 0.00 0.00 0.00 87 1031.3
20260507080600 40 321 0.0 0.0 0.00 0.00 0.00 87 1031.3
20260507075558 40 321 0.0 0.0 0.00 0.00 0.00 86 1031.3
20260507075058 40 321 0.0 0.0 0.00 0.00 0.00 86 1031.3
20260507074558 40 358 0.0 0.0 0.00 0.00 0.00 86 1031.3
20260507074057 40 358 0.0 0.0 0.00 0.00 0.00 86 1031.3
20260507073557 41 358 0.0 0.0 0.00 0.00 0.00 86 1031.3
20260507073102 41 358 0.0 0.0 0.00 0.00 0.00 86 1031.3
20260507072557 41 358 0.0 0.0 0.00 0.00 0.00 87 1031.3
20260507072056 41 358 0.0 0.0 0.00 0.00 0.00 89 1031.3
20260507071558 41 358 0.0 0.0 0.00 0.00 0.00 89 1031.3
20260507071055 41 358 0.0 0.0 0.00 0.00 0.00 89 1031.3
20260507070555 41 358 0.0 0.0 0.00 0.00 0.00 89 1031.3
20260507070059 41 358 0.0 0.0 0.00 0.00 0.00 88 1031.3
20260507065553 41 358 0.0 0.0 0.00 0.00 0.00 88 1031.3
20260507065053 41 358 0.0 0.0 0.00 0.00 0.00 88 1031.3
20260507064553 41 358 0.0 0.0 0.00 0.00 0.00 86 1031.3
20260507064052 42 358 0.0 0.0 0.00 0.00 0.00 85 1031.3
20260507063551 42 358 0.0 0.0 0.00 0.00 0.00 84 1031.3
20260507063053 42 358 0.0 0.0 0.00 0.00 0.00 83 1031.3
20260507062549 42 358 0.0 0.0 0.00 0.00 0.00 83 1031.3
20260507062049 43 358 0.0 0.0 0.00 0.00 0.00 82 1031.3
20260507061548 43 358 0.0 2.0 0.00 0.00 0.00 81 1031.3
20260507061046 43 358 0.0 2.0 0.00 0.00 0.00 80 1031.3
20260507060546 43 358 0.0 2.0 0.00 0.00 0.00 79 1031.3
20260507060052 43 358 0.0 2.0 0.00 0.00 0.00 79 1031.3
20260507055545 44 358 0.0 2.0 0.00 0.00 0.00 77 1031.3
20260507055044 44 332 0.0 0.0 0.00 0.00 0.00 77 1031.3
20260507054548 44 323 0.0 0.0 0.00 0.00 0.00 77 1031.3
20260507054041 44 323 0.0 0.0 0.00 0.00 0.00 76 1031.3
20260507053541 45 323 0.0 0.0 0.00 0.00 0.00 75 1031.3
20260507053042 45 323 0.0 0.0 0.00 0.00 0.00 74 1031.3
20260507052539 45 323 0.0 0.0 0.00 0.00 0.00 74 1031.3
20260507052039 45 323 0.0 0.0 0.00 0.00 0.00 73 1031.3
20260507051539 46 359 0.0 0.0 0.00 0.00 0.00 73 1031.3
20260507051041 46 359 0.0 0.0 0.00 0.00 0.00 72 1031.3
20260507050536 46 359 0.0 0.0 0.00 0.00 0.00 71 1031.3
20260507050037 46 359 0.0 0.0 0.00 0.00 0.00 70 1031.3
20260507045536 46 359 0.0 0.0 0.00 0.02 0.00 70 1031.3
20260507045034 46 359 0.0 0.0 0.00 0.02 0.00 68 1031.3
20260507044548 47 359 0.0 0.0 0.00 0.02 0.00 70 1031.3